Погода в Драбеши

Латвия     57°14′37″N   25°16′39″E
темп.,
°C
ветер,
м/с
пор.,
м/с
влажн.,
%
обл.,
%
осадки,
мм/ч
давл.,
гПа
погр.,
м
7 марта, вс
вс723:00+1зюз81679100 0.1 10031254
02:000з71598100 2.6 10001198
05:00−3з3685100 2.6 999524
08:00−2зсз81592100 5.1 9981510
11:00−1сз81548100 0.7 9992466
14:00−1зсз8145898 0.8 9992010
17:00−3зсз71474100 0.1 10001578
20:00−4зсз61284100 0.7 10001237
8 марта, пн
пн823:00−5сз51092100 0.4 1002835
02:00−5с4880100 0.7 1005794
05:00−7ссз398841 0.0 1008796
08:00−7с587771 0.2 1011942
11:00−6с4771100 0.1 1013844
14:00−4с3665100 0.1 1015887
17:00−4ссз356695 0.0 10161049
20:00−7ссз228271 0.0 101850
9 марта, вт
вт923:00−9ссв12909 0.0 101921
02:00−10з00904 0.0 102021
05:00−9зюз128475 0.0 102021
08:00−7ююз357488 0.0 1020201
11:00−4юз3670100 0.0 1020478
14:00−1зюз476198 0.0 10191186
17:00−1зюз3867100 0.0 10171029
20:00−3юз3981100 0.1 1017397
10 марта, ср
ср1023:00−3юз41177100 0.0 1017589
02:00−4юз4986100 0.0 1017451
05:00−3юз3895100 0.5 1017483
08:00−5ссв3493100 1.4 1019201
11:00−5св358098 0.1 1019331
14:00−3св357797 0.1 1020496
17:00−5св368499 0.0 1020505
20:00−7всв379199 0.1 1021385
11 марта, чт
чт1123:00−9всв269589 0.0 1021277
02:00−9в239686 0.1 1021131
05:00−10юв239657 0.0 101992
08:00−8ююв369052 0.0 1018238
11:00−3ю597323 0.0 1015678
14:00−1ю5106462 0.0 1012923
17:000ююв61363100 0.0 10081007
20:00−1ю81664100 0.0 10041000